Location: ?ern� Novina
(50.6762°N, 14.8696°E)
Time: 11:08:03
(UTC+00:00)

Spot 2 Rocket - Pass Details

Date: 03 March 2021
Orbit: 757 x 772 km, 98.5° (Epoch: 16 April)

Event Time Altitude Azimuth Distance (km) Brightness Sun altitude
Exits shadow 20:01:34 40° 356° (N) 1,123 4.5 -30.8°
Drops below altitude 10° 20:04:52 10° 348° (NNW) 2,328 6.5 -31.2°
Sets 20:07:11 0° 347° (NNW) 3,261 7.4 -31.5°
